Domov               UVHVVR             MKGP            O straneh              
ZDRAVSTVENO VARSTVO RASTLIN
  MREŽA AGROMET. POSTAJ
 ► PROGNOSTIČNA OBVESTILA
AGROMETEOROLOŠKI PODATKI -
ARSO
OBVLADOVANJE TVEGANJ ZARADI
NEUGODNIH VREMENSKIH RAZMER
  ► NARAVNE NESREČE
  ► SUŠA/MOČA
  ► NAMAKANJE
  ► ŽLED (gozdarstvo)
KARTOGRAFSKI PRIKAZI
SPLETNE POVEZAVE
PROJEKTI IN PUBLIKACIJE

AGROMETEOROLOŠKA MREŽA: VREMENSKE POSTAJE IN FENOLOŠKA OPAZOVANJA

Pregled podatkov za lokacijo Bizeljsko, meteorološka postaja 38541

Pregled senzorjev na lokaciji

ID Ime Zadnja
vrednost
Datum
zadnje
spremembe
Tip
senzorja
2029 Omočenost lista (U) 0 U 24.3.2019 12:29 A730WET
2030 Padavine (mm) 0 mm 24.3.2019 12:30 Rain-O-Matic
2028 Relativna vlaga 2 m (% RH) 46,76 % RH 24.3.2019 12:30 50YA
2027 Temperatura 2 m (°C) 16,83 °C 24.3.2019 12:29 50YA

Pregled podatkov zadnjih 24 ur

Zap.
št.
Datum in čas Bizeljsko
Omočenost
lista
Padavine Relativna
vlaga
2
m
Temperatura
2
m
1 24.3.2019 12:00
2 24.3.2019 11:30
3 24.3.2019 11:00
4 24.3.2019 10:30 0 0 49,1 15,2
5 24.3.2019 10:00 0 0 49,1 14,4
6 24.3.2019 09:30 0 0 51,6 13,3
7 24.3.2019 09:00 0 0 56 12,4
8 24.3.2019 08:30 0 0 55,3 12,3
9 24.3.2019 08:00 0 0 53,5 12,9
10 24.3.2019 07:30 0 0 53,9 11,8
11 24.3.2019 07:00 0 0 57,8 9,5
12 24.3.2019 06:30 0 0 59 8,4
13 24.3.2019 06:00 0 0 56,2 9
14 24.3.2019 05:30 0 0 54,5 9,4
15 24.3.2019 05:00 0 0 52,5 9,9
16 24.3.2019 04:30 0 0 52,3 9,9
17 24.3.2019 04:00 0 0 52,3 9,9
18 24.3.2019 03:30 0 0 50,6 10,3
19 24.3.2019 03:00 0 0 50,5 10,4
20 24.3.2019 02:30 0 0 49,9 10,7
21 24.3.2019 02:00 0 0 48,9 11
22 24.3.2019 01:30 0 0 46 11,9
23 24.3.2019 01:00 0 0 45,9 11,9
24 24.3.2019 00:30 0 0 47,2 11,6
25 24.3.2019 00:00 0 0 45,7 11,9
26 23.3.2019 23:30 0 0 43,9 12,3
27 23.3.2019 23:00 0 0 43,2 12,6
28 23.3.2019 22:30 0 0 42,9 12,7
29 23.3.2019 22:00 0 0 41,8 13
30 23.3.2019 21:30 0 0 41,1 13,2
31 23.3.2019 21:00 0 0 40,9 13,2
32 23.3.2019 20:30 0 0 40,8 13,3
33 23.3.2019 20:00 0 0 39,9 13,7
34 23.3.2019 19:30 0 0 41 13,6
35 23.3.2019 19:00 0 0 41,9 13,7
36 23.3.2019 18:30 0 0 41,2 14,1
37 23.3.2019 18:00 0 0 38,4 15,1
38 23.3.2019 17:30 0 0 33,9 16,5
39 23.3.2019 17:00 0 0 32,5 17,7
40 23.3.2019 16:30 0 0 32,3 18
41 23.3.2019 16:00 0 0 30,9 18,3
42 23.3.2019 15:30 0 0 30,9 18,1
43 23.3.2019 15:00 0 0 30,7 18,3
44 23.3.2019 14:30 0 0 31,3 18,1
45 23.3.2019 14:00 0 0 31,2 17,7
46 23.3.2019 13:30 0 0 30,5 17,6
47 23.3.2019 13:00 0 0 32,8 17,3
48 23.3.2019 12:30 0 0 33,1 16,8
© 2011 Ministrstvo za kmetijstvo, gozdarstvo in prehrano. Vse pravice pridržane.